Winter Haven, FL

8:27 PM EDT on September 24, 2017 (GMT -0400)
Winter Haven's-Gilbert

Weather History for KGIF - August, 2014

Change the Weather History Date:

Tuesday, August 19, 2014

  Actual Average Record
Temperature  
Mean Temperature 84 °F -  
Max Temperature 95 °F 93 °F 99 °F (2005)
Min Temperature 75 °F 72 °F 69 °F (1960)
Cooling Degree Days 19    
Growing Degree Days 34 (Base 50)    
Moisture  
Dew Point 73 °F    
Average Humidity 71    
Maximum Humidity 96    
Minimum Humidity 45    
Precipitation  
Precipitation 0.01 in - - ()
Sea Level Pressure  
Sea Level Pressure 30.02 in    
Wind  
Wind Speed 3 mph (West)    
Max Wind Speed 10 mph    
Max Gust Speed -    
Visibility 10 miles    
Events Rain    
Averages and records for this station are not official NWS values.
T = Trace of Precipitation, MM = Missing Value Source: NWS Daily Summary

Daily Weather History Graph

Daily Weather History Graph

Search for Another Location

Airport or City:

Trip Planner

Search our weather history database for the weather conditions in past years. The results will help you decide how hot, cold, wet, or windy it might be!

Date:

Astronomy

Aug. 19, 2014 Rise Set
Actual Time 6:59 AM EDT 8:01 PM EDT
Civil Twilight 6:34 AM EDT 8:26 PM EDT
Nautical Twilight 6:05 AM EDT 8:54 PM EDT
Astronomical Twilight 5:36 AM EDT 9:24 PM EDT
Moon 1:58 AM EDT (8/19) 3:48 PM EDT (8/19)
Length of Visible Light 13h 51m
Length of Day
13h 02m
Waning Crescent, 29% of the Moon is Illuminated
Aug 19
Waning Crescent
Aug 25
New
Sep 2
First Quarter
Sep 8
Full
Sep 15
Last Quarter

Hourly Weather History & Observations

Time (EDT) Temp. Heat Index Dew Point Humidity Pressure Visibility Wind Dir Wind Speed Gust Speed Precip Events Conditions
12:53 AM 79.0 °F - 73.0 °F 82% 30.01 in 10.0 mi Calm Calm - N/A   Clear
1:53 AM 78.1 °F - 73.9 °F 87% 30.01 in 10.0 mi Calm Calm - N/A   Clear
2:53 AM 77.0 °F - 73.9 °F 90% 30.00 in 10.0 mi Calm Calm - N/A   Clear
3:53 AM 77.0 °F - 73.9 °F 90% 30.00 in 10.0 mi Calm Calm - N/A   Clear
5:53 AM 75.0 °F - 73.9 °F 96% 30.01 in 10.0 mi SSW 4.6 mph - N/A   Clear
6:53 AM 75.0 °F - 73.9 °F 96% 30.03 in 10.0 mi Calm Calm - N/A   Clear
7:53 AM 77.0 °F - 75.9 °F 96% 30.04 in 10.0 mi South 4.6 mph - N/A   Clear
8:53 AM 81.0 °F 87.3 °F 75.9 °F 85% 30.06 in 10.0 mi Calm Calm - N/A   Clear
9:26 AM 82.9 °F 90.8 °F 75.9 °F 79% 30.07 in - SW 4.6 mph - N/A   Partly Cloudy
9:53 AM 84.9 °F 93.3 °F 75.0 °F 72% 30.07 in 8.0 mi North - - N/A   Clear
10:53 AM 87.1 °F 96.3 °F 75.0 °F 67% 30.06 in 10.0 mi SW 5.8 mph - N/A   Clear
11:53 AM 89.1 °F 97.0 °F 73.0 °F 59% 30.05 in 10.0 mi Variable 4.6 mph - N/A   Partly Cloudy
12:53 PM 91.9 °F 97.4 °F 70.0 °F 48% 30.04 in 10.0 mi West 10.4 mph - N/A   Partly Cloudy
1:53 PM 93.0 °F 99.0 °F 70.0 °F 47% 30.02 in 10.0 mi West 6.9 mph - N/A   Clear
2:53 PM 91.9 °F 98.4 °F 71.1 °F 50% 30.00 in 10.0 mi West 8.1 mph - N/A   Scattered Clouds
3:53 PM 93.0 °F 99.0 °F 70.0 °F 47% 29.98 in 10.0 mi Variable 6.9 mph - N/A   Mostly Cloudy
4:53 PM 91.9 °F 95.9 °F 68.0 °F 45% 29.98 in 10.0 mi West 5.8 mph - N/A   Mostly Cloudy
5:53 PM 84.0 °F 91.2 °F 73.9 °F 72% 29.98 in 6.0 mi SSW 9.2 mph - 0.01 in Rain Light Rain
6:53 PM 90.0 °F 97.9 °F 73.0 °F 57% 29.99 in 10.0 mi ESE 3.5 mph - 0.00 in   Overcast
7:53 PM 87.1 °F 93.6 °F 72.0 °F 61% 29.99 in 10.0 mi NW 9.2 mph - N/A   Clear
8:53 PM 84.9 °F 90.7 °F 72.0 °F 65% 30.01 in 10.0 mi NW 5.8 mph - N/A   Clear
9:53 PM 82.9 °F 88.8 °F 73.0 °F 72% 30.00 in 10.0 mi NW 6.9 mph - N/A   Clear
10:53 PM 82.0 °F 87.4 °F 73.0 °F 74% 30.03 in 10.0 mi NW 8.1 mph - N/A   Clear
11:53 PM 80.1 °F 84.2 °F 73.0 °F 79% 30.02 in 10.0 mi WNW 5.8 mph - N/A   Clear